Miles City, MT

8:32 AM MDT on April 26, 2017 (GMT -0600)
Wiley

Weather History for KMLS - June, 2013

Change the Weather History Date:

Thursday, June 20, 2013

  Actual Average Record
Temperature  
Mean Temperature 67 °F 67 °F  
Max Temperature 78 °F 80 °F 105 °F (1988)
Min Temperature 56 °F 54 °F 43 °F (1946)
Degree Days  
Heating Degree Days 0 2  
Month to date heating degree days 51 74  
Since 1 June heating degree days 51 74  
Since 1 July heating degree days 7139 7623  
Cooling Degree Days 2 4  
Month to date cooling degree days 37 54  
Year to date cooling degree days 50 74  
Since 1 June cooling degree days 37 54  
Growing Degree Days 16 (Base 50)    
Moisture  
Dew Point 45 °F    
Average Humidity 58    
Maximum Humidity 93    
Minimum Humidity 23    
Precipitation  
Precipitation 0.00 in 0.09 in 0.76 in (2005)
Month to date precipitation 2.20 1.81  
Year to date precipitation 10.72 6.51  
Sea Level Pressure  
Sea Level Pressure 29.79 in    
Wind  
Wind Speed 9 mph (NW)    
Max Wind Speed 24 mph    
Max Gust Speed 32 mph    
Visibility 10 miles    
Events      
T = Trace of Precipitation, MM = Missing Value Source: NWS Daily Summary

Daily Weather History Graph

Daily Weather History Graph

Search for Another Location

Airport or City:

Trip Planner

Search our weather history database for the weather conditions in past years. The results will help you decide how hot, cold, wet, or windy it might be!

Date:

Astronomy

Jun. 20, 2013 Rise Set
Actual Time 5:10 AM MDT 8:59 PM MDT
Civil Twilight 4:31 AM MDT 9:38 PM MDT
Nautical Twilight 3:38 AM MDT 10:31 PM MDT
Astronomical Twilight 2:22 AM MDT 11:48 PM MDT
Moon 5:58 PM MDT (6/20) 2:47 AM MDT (6/20)
Length of Visible Light 17h 07m
Length of Day
15h 48m
Waxing Gibbous, 89% of the Moon is Illuminated
Jun 20
Waxing Gibbous
Jun 23
Full
Jun 29
Last Quarter
Jul 8
New
Jul 15
First Quarter

Hourly Weather History & Observations

Time (MDT) Temp. Dew Point Humidity Pressure Visibility Wind Dir Wind Speed Gust Speed Precip Events Conditions
12:17 AM 69.8 °F 57.2 °F 64% 29.60 in 10.0 mi WNW 23.0 mph 33.4 mph N/A   Clear
12:53 AM 66.9 °F 52.0 °F 59% 29.53 in 10.0 mi West 20.7 mph 27.6 mph N/A   Clear
1:53 AM 62.1 °F 54.0 °F 75% 29.59 in 10.0 mi West 13.8 mph - N/A   Clear
2:53 AM 60.1 °F 53.1 °F 78% 29.66 in 10.0 mi NW 10.4 mph - N/A   Clear
3:53 AM 57.0 °F 53.1 °F 87% 29.68 in 10.0 mi WNW 11.5 mph - N/A   Clear
4:53 AM 55.9 °F 54.0 °F 93% 29.72 in 10.0 mi WNW 11.5 mph - N/A   Clear
5:53 AM 57.0 °F 54.0 °F 89% 29.74 in 10.0 mi WNW 9.2 mph - N/A   Clear
6:53 AM 60.1 °F 54.0 °F 80% 29.76 in 10.0 mi West 6.9 mph - N/A   Clear
7:53 AM 64.0 °F 55.0 °F 73% 29.79 in 10.0 mi WNW 5.8 mph - N/A   Clear
8:53 AM 69.1 °F 46.0 °F 44% 29.79 in 10.0 mi WNW 12.7 mph - N/A   Clear
9:53 AM 71.1 °F 39.0 °F 31% 29.81 in 10.0 mi WNW 13.8 mph - N/A   Clear
10:53 AM 72.0 °F 39.0 °F 30% 29.82 in 10.0 mi WNW 12.7 mph - N/A   Clear
11:53 AM 73.0 °F 34.0 °F 24% 29.83 in 10.0 mi West 8.1 mph 18.4 mph N/A   Clear
12:53 PM 73.9 °F 37.0 °F 26% 29.84 in 10.0 mi West 5.8 mph 16.1 mph N/A   Clear
1:53 PM 75.0 °F 37.9 °F 26% 29.85 in 10.0 mi Variable 6.9 mph - N/A   Clear
2:53 PM 75.9 °F 37.0 °F 24% 29.86 in 10.0 mi NNW 4.6 mph - N/A   Clear
3:53 PM 75.9 °F 37.0 °F 24% 29.86 in 10.0 mi West 6.9 mph - N/A   Clear
4:53 PM 77.0 °F 37.0 °F 24% 29.86 in 10.0 mi West 5.8 mph - N/A   Clear
5:53 PM 75.9 °F 37.0 °F 24% 29.86 in 10.0 mi NW 9.2 mph - N/A   Clear
6:53 PM 75.0 °F 37.0 °F 25% 29.86 in 10.0 mi North 8.1 mph - N/A   Clear
7:53 PM 71.1 °F 43.0 °F 36% 29.89 in 10.0 mi North 3.5 mph - N/A   Clear
8:53 PM 68.0 °F 43.0 °F 40% 29.89 in 10.0 mi North 5.8 mph - N/A   Clear
9:53 PM 63.0 °F 43.0 °F 48% 29.90 in 10.0 mi North 8.1 mph - N/A   Clear
10:53 PM 62.1 °F 43.0 °F 50% 29.90 in 10.0 mi North 10.4 mph - N/A   Clear
11:53 PM 64.0 °F 42.1 °F 45% 29.90 in 10.0 mi North 10.4 mph - N/A   Clear